TimeCST,TemperatureF,Dew PointF,Humidity,Sea Level PressureIn,VisibilityMPH,Wind Direction,Wind SpeedMPH,Gust SpeedMPH,PrecipitationIn,Events,Conditions,WindDirDegrees,DateUTC
12:55 AM,32.4,27.0,80,30.28,10.0,SW,15.0,-,N/A,,Clear,220,2013-01-05 06:55:00
1:55 AM,30.7,27.0,86,30.27,10.0,SSW,10.4,-,N/A,,Mostly Cloudy,200,2013-01-05 07:55:00
2:55 AM,28.0,25.2,89,30.27,10.0,SSW,9.2,-,N/A,,Partly Cloudy,200,2013-01-05 08:55:00
3:55 AM,32.2,27.1,82,30.26,10.0,SW,11.5,-,N/A,,Overcast,220,2013-01-05 09:55:00
4:55 AM,31.6,26.8,82,30.26,10.0,SSW,11.5,-,N/A,,Mostly Cloudy,210,2013-01-05 10:55:00
5:44 AM,32.0,28.4,87,30.25,10.0,SSW,10.4,-,N/A,,Overcast,210,2013-01-05 11:44:00
5:55 AM,32.7,27.5,81,30.26,10.0,SW,15.0,-,0.00,,Mostly Cloudy,220,2013-01-05 11:55:00
6:06 AM,33.8,26.6,75,30.22,10.0,SW,15.0,-,N/A,,Mostly Cloudy,230,2013-01-05 12:06:00
6:55 AM,34.7,30.2,84,30.27,10.0,SSW,11.5,-,N/A,,Mostly Cloudy,200,2013-01-05 12:55:00
7:04 AM,33.8,30.2,87,30.26,10.0,SSW,10.4,-,N/A,Rain,Light Rain,210,2013-01-05 13:04:00
7:11 AM,33.8,32.0,93,30.26,5.0,SW,11.5,-,N/A,Rain,Light Rain,220,2013-01-05 13:11:00
7:30 AM,35.6,32.0,87,30.26,10.0,SW,15.0,-,N/A,Rain,Light Rain,220,2013-01-05 13:30:00
7:55 AM,34.9,34.2,97,30.26,10.0,SSW,12.7,-,0.00,,Light Drizzle,210,2013-01-05 13:55:00
7:59 AM,35.6,33.8,93,30.26,10.0,SSW,12.7,-,N/A,Rain,Light Rain,210,2013-01-05 13:59:00
8:04 AM,35.6,35.6,100,30.26,10.0,SSW,11.5,-,N/A,,Mostly Cloudy,200,2013-01-05 14:04:00
8:55 AM,35.6,35.2,99,30.25,10.0,SSW,9.2,-,0.00,,Overcast,200,2013-01-05 14:55:00
9:55 AM,37.9,34.2,86,30.24,10.0,SSW,15.0,-,N/A,,Overcast,200,2013-01-05 15:55:00
10:55 AM,39.4,32.9,78,30.23,10.0,SW,18.4,21.9,N/A,,Overcast,220,2013-01-05 16:55:00
10:59 AM,39.2,32.0,75,30.22,10.0,SW,19.6,-,N/A,,Overcast,220,2013-01-05 16:59:00
11:01 AM,39.2,32.0,75,30.22,9.0,SW,18.4,-,N/A,Rain,Light Rain,220,2013-01-05 17:01:00
11:08 AM,39.2,32.0,75,30.22,10.0,SW,19.6,26.5,N/A,Rain,Light Rain,220,2013-01-05 17:08:00
11:23 AM,37.4,35.6,93,30.22,10.0,SW,13.8,24.2,N/A,,Light Drizzle,230,2013-01-05 17:23:00
11:55 AM,36.7,36.0,97,30.21,10.0,SW,16.1,-,0.00,Rain,Light Rain,220,2013-01-05 17:55:00
12:06 PM,37.4,35.6,93,30.20,10.0,SSW,13.8,-,N/A,,Overcast,210,2013-01-05 18:06:00
12:55 PM,37.9,36.7,95,30.16,10.0,SSW,15.0,-,0.00,,Overcast,210,2013-01-05 18:55:00
1:55 PM,39.4,36.1,88,30.12,10.0,SSW,20.7,-,N/A,,Overcast,210,2013-01-05 19:55:00
2:55 PM,41.2,34.9,78,30.10,10.0,SW,19.6,-,N/A,,Overcast,220,2013-01-05 20:55:00
3:35 PM,41.0,33.8,76,30.11,10.0,SW,18.4,25.3,N/A,,Mostly Cloudy,230,2013-01-05 21:35:00
3:55 PM,40.6,33.4,75,30.12,10.0,WSW,18.4,24.2,N/A,,Overcast,240,2013-01-05 21:55:00
4:19 PM,41.0,33.8,76,30.13,10.0,SW,17.3,-,N/A,,Overcast,230,2013-01-05 22:19:00
4:55 PM,39.7,33.1,77,30.13,10.0,SW,13.8,-,N/A,,Overcast,220,2013-01-05 22:55:00
5:55 PM,38.8,33.1,80,30.14,10.0,SW,12.7,-,N/A,,Overcast,220,2013-01-05 23:55:00
6:55 PM,36.9,33.1,86,30.14,10.0,SW,12.7,-,N/A,,Scattered Clouds,220,2013-01-06 00:55:00
7:55 PM,35.8,32.9,89,30.13,10.0,SSW,12.7,-,N/A,,Clear,210,2013-01-06 01:55:00
8:55 PM,36.5,32.2,84,30.15,10.0,WSW,10.4,-,N/A,,Clear,250,2013-01-06 02:55:00
9:55 PM,34.9,31.6,88,30.16,10.0,West,9.2,-,N/A,,Clear,260,2013-01-06 03:55:00
10:55 PM,31.8,30.2,94,30.17,10.0,West,8.1,-,N/A,,Clear,270,2013-01-06 04:55:00
11:55 PM,30.2,28.6,94,30.17,10.0,West,6.9,-,N/A,,Clear,260,2013-01-06 05:55:00